Temp
48 47 47 48 47 45 44 43 42 43 43 42 43 42 41 40 38 38 37 36 37 38
47 46 45 45 46 45 43 43 42 42 42 42 42 42 41 39 37 36 35 35 36 36
47 47 46 45 43 43 43 43 42 41 41 41 41 41 40 38 37 35 35 35 34 33
45 45 45 44 43 43 43 43 42 42 42 41 40 40 39 37 37 35 33 32 33 31
45 44 43 43 43 43 42 43 42 42 40 40 40 39 38 38 36 34 32 32 33 31
41 41 40 41 42 42 41 41 41 40 40 40 38 38 37 35 33 32 32 31 30 29
39 39 39 39 39 39 40 39 38 39 37 36 36 36 35 33 30 29 30 30 30 29
35 36 36 36 36 36 36 37 37 35 34 33 33 33 32 31 30 29 28 30 30 29
35 35 35 35 36 36 35 34 33 33 33 32 33 34 33 31 29 29 28 27 29 31
34 34 34 35 34 33 33 33 32 32 32 30 31 34 34 32 29 28 27 27 27 28
34 34 34 34 33 33 33 32 32 31 31 31 31 34 33 31 27 26 24 24 23 22
34 33 33 33 33 33 32 31 30 30 30 30 31 34 32 27 24 22 20 19 19 18
34 34 33 33 33 33 32 31 30 29 29 31 30 33 31 26 22 18 17 18 18 24
35 34 34 33 33 32 31 29 28 27 28 29 30 30 30 27 22 20 18 18 17 17
MSLP
1015.07 1015.55 1015.23 1016.78 1017.41 1016.51 1017.52 1018.68 1019.61 1020.55 1020.72 1020.41 1020.70 1020.96 1021.01 1021.20 1021.61 1021.95 1022.46 1022.68 1022.79 1023.01
1014.65 1015.42 1016.06 1015.68 1017.93 1016.61 1016.96 1018.29 1019.29 1019.70 1020.91 1020.86 1020.91 1021.61 1021.56 1021.74 1022.00 1022.35 1022.89 1022.84 1023.10 1023.42
1014.92 1016.18 1015.73 1017.21 1018.19 1017.21 1017.90 1018.02 1019.40 1019.33 1020.92 1021.02 1021.12 1021.59 1021.94 1022.31 1022.84 1023.05 1023.16 1023.44 1023.37 1023.82
1014.91 1015.30 1016.53 1017.73 1017.16 1016.93 1018.27 1018.73 1019.79 1019.71 1020.85 1021.31 1021.46 1022.02 1022.33 1022.77 1023.31 1023.43 1023.81 1024.05 1024.37 1024.42
1015.26 1015.33 1015.99 1018.17 1017.37 1016.82 1017.84 1018.92 1019.41 1019.61 1020.21 1021.27 1021.99 1022.45 1022.90 1023.25 1023.49 1023.66 1023.95 1024.41 1024.58 1024.89
1015.34 1015.72 1015.89 1017.98 1017.20 1016.71 1017.54 1018.94 1019.38 1019.82 1020.94 1021.42 1022.20 1022.63 1023.18 1023.42 1023.66 1024.30 1024.64 1024.60 1024.62 1025.45
1015.10 1015.64 1016.83 1017.38 1017.05 1017.44 1018.23 1019.09 1019.81 1020.57 1021.43 1022.02 1022.50 1022.58 1023.06 1023.71 1024.44 1024.57 1025.21 1024.76 1025.16 1025.61
1015.43 1015.90 1016.38 1016.63 1017.14 1017.79 1018.54 1019.31 1020.10 1020.89 1021.60 1022.29 1022.88 1023.05 1023.44 1023.87 1024.45 1025.17 1025.30 1025.55 1025.57 1026.01
1015.28 1015.82 1016.33 1016.73 1017.35 1018.11 1018.90 1019.69 1020.24 1020.79 1021.26 1021.83 1022.34 1022.85 1023.61 1023.92 1024.72 1025.46 1025.64 1025.71 1025.92 1026.05
1015.29 1015.80 1016.35 1016.94 1017.65 1018.26 1018.95 1019.72 1020.28 1020.80 1021.27 1021.93 1022.41 1022.74 1023.11 1024.05 1024.85 1025.55 1026.04 1026.49 1026.60 1026.74
1014.90 1015.78 1016.53 1016.93 1017.62 1018.30 1018.93 1019.45 1020.00 1020.71 1021.28 1021.86 1022.36 1022.59 1023.14 1023.89 1024.88 1025.56 1026.16 1026.64 1027.09 1027.29
1014.82 1015.69 1016.58 1017.06 1017.65 1018.28 1018.84 1019.45 1020.13 1020.66 1021.31 1021.77 1022.25 1022.70 1023.16 1024.04 1024.89 1025.83 1026.53 1027.14 1027.55 1027.73
1013.99 1014.62 1015.55 1016.25 1016.87 1017.65 1018.54 1019.22 1020.01 1020.70 1021.19 1021.56 1022.06 1022.63 1023.38 1024.21 1024.88 1025.83 1026.75 1027.34 1027.61 1027.32
1013.87 1014.34 1014.99 1015.86 1016.82 1017.40 1018.24 1019.09 1019.77 1020.60 1021.19 1021.61 1021.94 1022.57 1023.33 1023.98 1024.80 1025.36 1026.39 1027.19 1027.48 1027.65
Wind_Speed
4 5 4 5 5 7 7 6 5 3 3 5 5 4 5 4 4 5 4 7 5 4
7 6 6 8 9 8 8 7 7 7 5 5 6 4 5 4 5 5 4 5 5 4
7 6 6 6 5 7 7 8 7 8 5 5 6 5 5 5 4 6 3 3 6 4
6 7 7 6 7 9 8 8 7 7 6 5 6 5 5 5 5 7 6 4 5 7
8 9 9 6 7 10 10 8 8 8 8 7 5 4 5 5 5 6 6 5 6 6
7 8 9 8 9 10 11 9 9 9 8 8 6 6 5 6 7 5 5 5 6 4
9 8 8 8 8 9 8 9 9 8 6 6 5 7 8 7 6 6 4 7 7 5
7 8 9 9 9 9 10 9 9 9 8 8 6 4 7 7 7 6 6 6 7 6
8 9 9 9 9 9 9 9 9 8 9 8 5 13 13 9 7 6 6 7 6 6
9 9 8 9 10 9 10 9 9 8 8 7 6 13 13 13 7 7 5 4 5 5
9 10 10 10 8 8 8 8 8 8 8 8 6 15 16 15 7 6 5 4 3 4
9 10 9 9 9 8 8 7 7 8 9 8 8 16 18 12 8 6 6 4 3 4
11 12 12 11 11 8 8 9 7 8 8 12 9 18 17 13 6 7 5 3 2 9
9 9 9 9 6 9 8 8 8 8 7 7 10 12 17 17 6 6 6 4 3 2
Wind_Direction
143 168 129 184 181 145 156 146 138 115 107 110 114 117 109 101 93 85 89 90 84 87
166 182 192 157 199 160 132 140 141 135 142 124 112 110 103 101 97 101 94 90 88 85
170 193 136 165 189 124 128 117 134 125 133 130 117 120 115 101 97 105 93 94 94 85
144 131 135 165 142 127 124 124 136 122 123 116 110 111 104 106 112 99 89 68 75 76
164 153 143 168 146 135 131 134 136 123 118 122 118 113 118 116 109 105 101 109 98 84
143 144 138 165 144 125 126 135 131 121 129 132 133 125 114 106 102 111 111 99 85 86
155 148 150 144 120 116 121 123 121 116 108 92 99 111 114 116 114 101 113 100 104 100
136 129 126 119 119 123 129 131 127 123 120 121 115 114 123 129 127 140 117 105 96 105
134 136 145 148 147 136 130 132 133 140 147 145 144 151 148 131 132 136 124 116 108 97
150 152 149 138 136 144 145 147 150 147 142 137 138 158 149 134 132 136 124 128 133 127
152 155 159 151 149 145 148 154 152 147 144 143 150 154 153 140 122 115 110 125 144 138
151 160 164 165 160 155 156 148 153 153 151 149 159 160 150 131 122 120 120 129 142 150
166 167 173 169 163 160 161 159 153 151 155 161 155 163 155 138 135 131 142 152 184 165
174 172 161 153 161 157 156 150 152 150 155 150 152 161 162 155 154 147 147 162 171 181